Overview Statistics Trail Chart Weather Telemetry Raw packets
 

This is the latest recevied weather packets stored in our database for station/object OK2JCZ-6. If no packets are shown the sender has not sent any weather packets the latest 10 day(s).

<< 58 59 60 61 62 63 64 >>
Time Temp. Humidity Pressure Rain* Wind** Luminosity Snow
1788075621 23.89° C 36% 1017.1 hPa 0 mm - - -
1788075321 23.33° C 37% 1017.1 hPa 0 mm - - -
1788075021 23.33° C 38% 1017.1 hPa 0 mm - - -
1788074421 23.33° C 38% 1017.1 hPa 0 mm - - -
1788074121 23.33° C 38% 1017.1 hPa 0 mm - - -
1788073821 23.33° C 39% 1017.1 hPa 0 mm - - -
1788072621 22.78° C 39% 1016.9 hPa 0 mm - - -
1788072322 22.78° C 39% 1016.9 hPa 0 mm - - -
1788071721 22.78° C 41% 1016.9 hPa 0 mm - - -
1788071121 22.78° C 41% 1016.9 hPa 0 mm - - -
1788070821 22.78° C 42% 1016.8 hPa 0 mm - - -
1788070221 22.78° C 43% 1016.8 hPa 0 mm - - -
1788069921 22.78° C 44% 1016.8 hPa 0 mm - - -
1788068721 21.11° C 49% 1016.8 hPa 0 mm - - -
1788068421 20° C 51% 1016.9 hPa 0 mm - - -
1788067221 16.11° C 62% 1016.9 hPa 0 mm - - -
1788066303 13.89° C 68% 1016.9 hPa 0 mm - - -
1788065703 12.78° C 69% 1016.8 hPa 0 mm - - -
1788065403 12.78° C 70% 1016.8 hPa 0 mm - - -
1788065102 11.67° C 70% 1016.8 hPa 0 mm - - -
1788064803 11.67° C 70% 1016.9 hPa 0 mm - - -
1788064203 11.11° C 70% 1016.8 hPa 0 mm - - -
1788063550 11.11° C 69% 1016.9 hPa 0 mm - - -
1788063251 11.11° C 70% 1016.9 hPa 0 mm - - -
1788062951 11.11° C 69% 1016.9 hPa 0 mm - - -

* Rain latest hour (hover to see other rain measurements)
** Current wind speed in m/s (hover to see current wind gust speed)